WZZ5MD EHEH-EPKT

Flight info

Callsign WZZ5MD
Flight time 1h 25m
Altitude 35000
Route VELNI Y869 SUMOP L179 MEVEL Z44 HMM DCT LASIS T714 MOFKE
Aircraft A321/M-SDE3FGHIRWY/LB1

Departure

Time 2026-05-07 10:42
Airport Eindhoven Airport (EHEH)

Arrival

Time 2026-05-07 12:08
Airport Katowice Wojciech Korfanty International Airport (EPKT)
Time Latitude Longitude Altitude Speed Heading
2026-05-07 10:08 51.45727 5.38929 86 ft 0 kts 125°
2026-05-07 10:26 51.45733 5.38914 85 ft 1 kts 126°
2026-05-07 10:30 51.45749 5.38881 87 ft 2 kts 129°
2026-05-07 10:30 51.45760 5.38861 86 ft 2 kts 135°
2026-05-07 10:30 51.45772 5.38843 88 ft 2 kts 153°
2026-05-07 10:30 51.45788 5.38838 87 ft 2 kts 206°
2026-05-07 10:31 51.45795 5.38844 87 ft 0 kts 214°
2026-05-07 10:34 51.45779 5.38827 88 ft 5 kts 214°
2026-05-07 10:34 51.45738 5.38781 94 ft 9 kts 214°
2026-05-07 10:35 51.45672 5.38707 86 ft 13 kts 215°
2026-05-07 10:35 51.45637 5.38685 86 ft 2 kts 142°
2026-05-07 10:35 51.45646 5.38696 87 ft 3 kts 24°
2026-05-07 10:35 51.45682 5.38722 85 ft 8 kts 29°
2026-05-07 10:36 51.45733 5.38777 91 ft 9 kts 34°
2026-05-07 10:36 51.45797 5.38800 91 ft 11 kts 334°
2026-05-07 10:36 51.45851 5.38699 85 ft 14 kts 304°
2026-05-07 10:36 51.45903 5.38561 87 ft 14 kts 301°
2026-05-07 10:37 51.45969 5.38431 85 ft 16 kts 308°
2026-05-07 10:37 51.46010 5.38299 84 ft 12 kts 253°
2026-05-07 10:37 51.45938 5.38202 88 ft 16 kts 214°
2026-05-07 10:37 51.45829 5.38079 87 ft 22 kts 214°
2026-05-07 10:38 51.45695 5.37931 84 ft 23 kts 215°
2026-05-07 10:38 51.45566 5.37785 85 ft 22 kts 215°
2026-05-07 10:38 51.45438 5.37643 85 ft 23 kts 215°
2026-05-07 10:38 51.45317 5.37503 86 ft 20 kts 216°
2026-05-07 10:39 51.45199 5.37371 85 ft 21 kts 215°
2026-05-07 10:39 51.45076 5.37234 85 ft 22 kts 214°
2026-05-07 10:39 51.44951 5.37094 84 ft 22 kts 215°
2026-05-07 10:39 51.44822 5.36949 87 ft 23 kts 214°
2026-05-07 10:40 51.44689 5.36800 84 ft 24 kts 215°
2026-05-07 10:40 51.44565 5.36660 85 ft 22 kts 214°
2026-05-07 10:40 51.44440 5.36519 84 ft 22 kts 215°
2026-05-07 10:40 51.44314 5.36380 85 ft 22 kts 215°
2026-05-07 10:41 51.44208 5.36265 86 ft 12 kts 204°
2026-05-07 10:41 51.44140 5.36328 85 ft 13 kts 125°
2026-05-07 10:41 51.44141 5.36466 84 ft 16 kts 46°
2026-05-07 10:41 51.44375 5.36729 84 ft 76 kts 35°
2026-05-07 10:42 51.44990 5.37419 84 ft 137 kts 34°
2026-05-07 10:42 51.45869 5.38404 432 ft 156 kts 34°
2026-05-07 10:42 51.46759 5.39392 1342 ft 157 kts 33°
2026-05-07 10:42 51.47663 5.40401 2021 ft 160 kts 33°
2026-05-07 10:43 51.48598 5.41431 2501 ft 170 kts 34°
2026-05-07 10:43 51.49623 5.42569 2742 ft 189 kts 34°
2026-05-07 10:43 51.50696 5.43971 2891 ft 211 kts 50°
2026-05-07 10:43 51.51242 5.46266 3096 ft 237 kts 84°
2026-05-07 10:44 51.51271 5.49027 3584 ft 252 kts 86°
2026-05-07 10:44 51.51325 5.51857 4361 ft 256 kts 85°
2026-05-07 10:44 51.51393 5.54737 5114 ft 261 kts 85°
2026-05-07 10:44 51.51466 5.57669 5890 ft 265 kts 85°
2026-05-07 10:45 51.51542 5.60641 6664 ft 269 kts 85°
2026-05-07 10:45 51.51614 5.63659 7401 ft 272 kts 85°
2026-05-07 10:45 51.51681 5.66716 8136 ft 276 kts 86°
2026-05-07 10:45 51.51745 5.69819 8883 ft 280 kts 86°
2026-05-07 10:46 51.51809 5.72969 9664 ft 285 kts 85°
2026-05-07 10:46 51.51874 5.76175 10376 ft 293 kts 86°
2026-05-07 10:46 51.51945 5.79579 10619 ft 317 kts 86°
2026-05-07 10:46 51.52023 5.83241 10795 ft 340 kts 86°
2026-05-07 10:47 51.52101 5.87109 11191 ft 351 kts 86°
2026-05-07 10:47 51.52175 5.91051 11804 ft 355 kts 86°
2026-05-07 10:47 51.52246 5.95029 12470 ft 358 kts 87°
2026-05-07 10:47 51.52317 5.99047 13163 ft 361 kts 87°
2026-05-07 10:48 51.52387 6.03091 13843 ft 364 kts 88°
2026-05-07 10:48 51.52458 6.07176 14452 ft 368 kts 88°
2026-05-07 10:48 51.52527 6.11303 15029 ft 372 kts 88°
2026-05-07 10:48 51.52596 6.15467 15586 ft 376 kts 88°
2026-05-07 10:49 51.52683 6.19630 16142 ft 380 kts 85°
2026-05-07 10:49 51.53076 6.23896 16710 ft 383 kts 80°
2026-05-07 10:49 51.53544 6.28134 17281 ft 387 kts 80°
2026-05-07 10:49 51.54011 6.32394 17834 ft 391 kts 80°
2026-05-07 10:50 51.54474 6.36666 18377 ft 395 kts 80°
2026-05-07 10:50 51.54940 6.41036 18856 ft 399 kts 81°
2026-05-07 10:50 51.55407 6.45450 19366 ft 402 kts 81°
2026-05-07 10:50 51.55879 6.49901 19874 ft 405 kts 81°
2026-05-07 10:51 51.56419 6.54366 20372 ft 409 kts 75°
2026-05-07 10:51 51.57375 6.58677 20867 ft 412 kts 65°
2026-05-07 10:51 51.58794 6.62702 21326 ft 416 kts 55°
2026-05-07 10:51 51.60524 6.66446 21790 ft 419 kts 53°
2026-05-07 10:52 51.62286 6.70230 22257 ft 422 kts 53°
2026-05-07 10:52 51.64045 6.74026 22717 ft 425 kts 53°
2026-05-07 10:52 51.65810 6.77854 23173 ft 428 kts 53°
2026-05-07 10:52 51.67589 6.81726 23602 ft 431 kts 53°
2026-05-07 10:53 51.69372 6.85618 23989 ft 433 kts 53°
2026-05-07 10:53 51.71165 6.89534 24399 ft 434 kts 53°
2026-05-07 10:53 51.72963 6.93458 24825 ft 436 kts 53°
2026-05-07 10:53 51.74764 6.97393 25228 ft 437 kts 53°
2026-05-07 10:54 51.76573 7.01348 25627 ft 439 kts 53°
2026-05-07 10:54 51.78390 7.05335 26028 ft 440 kts 54°
2026-05-07 10:54 51.80207 7.09335 26419 ft 442 kts 54°
2026-05-07 10:54 51.82023 7.13346 26799 ft 443 kts 55°
2026-05-07 10:55 51.83586 7.17571 27157 ft 445 kts 64°
2026-05-07 10:55 51.84714 7.22218 27515 ft 446 kts 74°
2026-05-07 10:55 51.85369 7.27126 27871 ft 447 kts 83°
2026-05-07 10:55 51.85547 7.32150 28233 ft 449 kts 89°
2026-05-07 10:56 51.85572 7.37216 28607 ft 450 kts 89°
2026-05-07 10:56 51.85594 7.42283 28993 ft 452 kts 89°
2026-05-07 10:56 51.85614 7.47379 29362 ft 453 kts 89°
2026-05-07 10:56 51.85635 7.52475 29806 ft 452 kts 89°
2026-05-07 10:57 51.85654 7.57539 30305 ft 449 kts 90°
2026-05-07 10:57 51.85667 7.62584 30701 ft 448 kts 90°
2026-05-07 10:57 51.85675 7.67647 31031 ft 449 kts 90°
2026-05-07 10:57 51.85654 7.72695 31336 ft 450 kts 92°
2026-05-07 10:58 51.85566 7.77765 31645 ft 451 kts 93°
2026-05-07 10:58 51.85415 7.82840 31943 ft 452 kts 94°
2026-05-07 10:58 51.85225 7.87922 32243 ft 453 kts 95°
2026-05-07 10:58 51.85023 7.93018 32541 ft 454 kts 95°
2026-05-07 10:59 51.84826 7.98122 32849 ft 455 kts 95°
2026-05-07 10:59 51.84642 8.03164 33159 ft 455 kts 95°
2026-05-07 10:59 51.84463 8.08282 33462 ft 456 kts 95°
2026-05-07 10:59 51.84291 8.13398 33752 ft 457 kts 95°
2026-05-07 11:00 51.84120 8.18536 34052 ft 457 kts 95°
2026-05-07 11:00 51.83945 8.23678 34296 ft 457 kts 94°
2026-05-07 11:00 51.83764 8.28827 34516 ft 458 kts 95°
2026-05-07 11:00 51.83577 8.33990 34735 ft 459 kts 95°
2026-05-07 11:01 51.83386 8.39150 34952 ft 460 kts 96°
2026-05-07 11:01 51.83192 8.44308 35036 ft 460 kts 96°
2026-05-07 11:01 51.82805 8.54628 35047 ft 460 kts 96°
2026-05-07 11:02 51.82412 8.64939 35047 ft 460 kts 96°
2026-05-07 11:02 51.82005 8.75262 35041 ft 460 kts 96°
2026-05-07 11:03 51.81594 8.85582 35038 ft 460 kts 96°
2026-05-07 11:03 51.81176 8.95829 35032 ft 460 kts 96°
2026-05-07 11:04 51.80741 9.06149 35031 ft 460 kts 96°
2026-05-07 11:04 51.80302 9.16499 35023 ft 461 kts 96°
2026-05-07 11:05 51.79852 9.26845 35024 ft 461 kts 96°
2026-05-07 11:05 51.79392 9.37106 35017 ft 461 kts 96°
2026-05-07 11:06 51.78926 9.47460 35017 ft 461 kts 97°
2026-05-07 11:06 51.78446 9.57797 35016 ft 462 kts 97°
2026-05-07 11:07 51.77954 9.68139 35014 ft 462 kts 97°
2026-05-07 11:07 51.77456 9.78485 35014 ft 462 kts 97°
2026-05-07 11:08 51.77033 9.87104 35014 ft 463 kts 97°
2026-05-07 11:08 51.76516 9.97485 35011 ft 463 kts 97°
2026-05-07 11:09 51.75906 10.09542 35016 ft 464 kts 97°
2026-05-07 11:09 51.75460 10.18239 35016 ft 464 kts 97°
2026-05-07 11:10 51.74908 10.28618 35012 ft 465 kts 97°
2026-05-07 11:10 51.74358 10.38954 35014 ft 464 kts 97°
2026-05-07 11:11 51.73795 10.49339 35012 ft 465 kts 98°
2026-05-07 11:11 51.73222 10.59732 35014 ft 465 kts 98°
2026-05-07 11:12 51.72647 10.70054 35015 ft 465 kts 98°
2026-05-07 11:12 51.72055 10.80464 35027 ft 466 kts 98°
2026-05-07 11:13 51.71457 10.90875 35026 ft 466 kts 98°
2026-05-07 11:13 51.70847 11.01206 35033 ft 466 kts 98°
2026-05-07 11:14 51.70229 11.11611 35032 ft 466 kts 98°
2026-05-07 11:14 51.69601 11.22026 35031 ft 466 kts 98°
2026-05-07 11:15 51.68955 11.32424 35031 ft 466 kts 98°
2026-05-07 11:15 51.68308 11.42832 35031 ft 466 kts 98°
2026-05-07 11:16 51.67660 11.53158 35029 ft 466 kts 98°
2026-05-07 11:16 51.66993 11.63551 35023 ft 466 kts 99°
2026-05-07 11:17 51.66322 11.73936 35017 ft 466 kts 99°
2026-05-07 11:17 51.65639 11.84342 35015 ft 467 kts 99°
2026-05-07 11:18 51.64941 11.94741 35006 ft 467 kts 99°
2026-05-07 11:18 51.64233 12.05062 35002 ft 466 kts 99°
2026-05-07 11:19 51.63522 12.15454 35000 ft 466 kts 99°
2026-05-07 11:19 51.62807 12.25831 34995 ft 466 kts 99°
2026-05-07 11:20 51.62077 12.36204 34993 ft 466 kts 99°
2026-05-07 11:20 51.61334 12.46575 34996 ft 467 kts 100°
2026-05-07 11:21 51.60590 12.56887 34999 ft 467 kts 100°
2026-05-07 11:21 51.59835 12.67253 34998 ft 467 kts 100°
2026-05-07 11:22 51.59062 12.77639 35000 ft 467 kts 100°
2026-05-07 11:22 51.58287 12.88015 34994 ft 467 kts 100°
2026-05-07 11:23 51.57504 12.98396 34996 ft 467 kts 100°
2026-05-07 11:23 51.56714 13.08706 34998 ft 467 kts 100°
2026-05-07 11:24 51.55905 13.19062 35001 ft 467 kts 101°
2026-05-07 11:24 51.55090 13.29429 35003 ft 467 kts 101°
2026-05-07 11:25 51.54271 13.39792 35004 ft 467 kts 101°
2026-05-07 11:25 51.53440 13.50153 35002 ft 467 kts 101°
2026-05-07 11:26 51.52600 13.60494 35000 ft 467 kts 101°
2026-05-07 11:26 51.51745 13.70838 34999 ft 467 kts 101°
2026-05-07 11:27 51.50886 13.81178 34998 ft 467 kts 101°
2026-05-07 11:27 51.50025 13.91514 34997 ft 467 kts 101°
2026-05-07 11:28 51.49143 14.01772 34998 ft 467 kts 102°
2026-05-07 11:28 51.48261 14.12098 34996 ft 467 kts 102°
2026-05-07 11:29 51.47374 14.22420 34994 ft 467 kts 102°
2026-05-07 11:29 51.46476 14.32749 34989 ft 467 kts 102°
2026-05-07 11:30 51.45560 14.43074 34990 ft 468 kts 102°
2026-05-07 11:30 51.44632 14.53396 35009 ft 468 kts 102°
2026-05-07 11:31 51.43699 14.63616 35015 ft 465 kts 103°
2026-05-07 11:31 51.42760 14.73834 35007 ft 462 kts 103°
2026-05-07 11:32 51.41361 14.89068 35005 ft 460 kts 103°
2026-05-07 11:33 51.39967 14.98997 35000 ft 451 kts 116°
2026-05-07 11:33 51.37572 15.08270 34999 ft 450 kts 117°
2026-05-07 11:34 51.35179 15.17531 34998 ft 451 kts 117°
2026-05-07 11:34 51.32778 15.26790 34998 ft 450 kts 117°
2026-05-07 11:35 51.30371 15.36040 34994 ft 450 kts 118°
2026-05-07 11:35 51.27952 15.45287 34997 ft 450 kts 118°
2026-05-07 11:36 51.25541 15.54431 34994 ft 450 kts 118°
2026-05-07 11:36 51.23111 15.63635 34989 ft 449 kts 118°
2026-05-07 11:37 51.20678 15.72824 34999 ft 449 kts 118°
2026-05-07 11:37 51.18231 15.82004 34981 ft 449 kts 118°
2026-05-07 11:38 51.15792 15.91180 34975 ft 449 kts 118°
2026-05-07 11:38 51.13415 16.00400 34982 ft 450 kts 118°
2026-05-07 11:39 51.11055 16.09622 34977 ft 450 kts 118°
2026-05-07 11:39 51.08690 16.18775 34977 ft 450 kts 118°
2026-05-07 11:40 51.06293 16.27956 34968 ft 450 kts 119°
2026-05-07 11:40 51.03879 16.37139 34967 ft 450 kts 119°
2026-05-07 11:41 51.01469 16.46312 34972 ft 450 kts 119°
2026-05-07 11:41 50.99055 16.55484 34969 ft 450 kts 119°
2026-05-07 11:42 50.96630 16.64632 34969 ft 450 kts 120°
2026-05-07 11:42 50.94196 16.73758 34973 ft 450 kts 120°
2026-05-07 11:43 50.91755 16.82894 34969 ft 450 kts 120°
2026-05-07 11:43 50.89305 16.92013 34968 ft 449 kts 120°
2026-05-07 11:44 50.86866 17.01055 34961 ft 449 kts 120°
2026-05-07 11:44 50.84402 17.10150 34959 ft 449 kts 120°
2026-05-07 11:45 50.81931 17.19236 34942 ft 449 kts 121°
2026-05-07 11:45 50.79428 17.28298 34941 ft 449 kts 121°
2026-05-07 11:46 50.76913 17.37336 34933 ft 449 kts 121°
2026-05-07 11:46 50.74393 17.46373 34931 ft 450 kts 121°
2026-05-07 11:46 50.73132 17.50893 34784 ft 450 kts 121°
2026-05-07 11:47 50.71884 17.55406 34296 ft 448 kts 121°
2026-05-07 11:47 50.70646 17.59923 33732 ft 448 kts 121°
2026-05-07 11:47 50.69416 17.64433 33087 ft 447 kts 121°
2026-05-07 11:47 50.68189 17.68935 32415 ft 447 kts 121°
2026-05-07 11:48 50.66954 17.73450 31737 ft 448 kts 121°
2026-05-07 11:48 50.65728 17.77906 31056 ft 448 kts 121°
2026-05-07 11:48 50.64481 17.82405 30415 ft 448 kts 120°
2026-05-07 11:48 50.63235 17.86878 29908 ft 444 kts 120°
2026-05-07 11:49 50.61999 17.91307 29312 ft 440 kts 120°
2026-05-07 11:49 50.60766 17.95692 28702 ft 435 kts 121°
2026-05-07 11:49 50.59596 18.00079 28094 ft 436 kts 116°
2026-05-07 11:49 50.58778 18.04697 27500 ft 441 kts 107°
2026-05-07 11:50 50.58436 18.09507 26913 ft 444 kts 99°
2026-05-07 11:50 50.58263 18.14352 26323 ft 442 kts 99°
2026-05-07 11:50 50.58120 18.19189 25757 ft 440 kts 98°
2026-05-07 11:50 50.57992 18.23985 25198 ft 437 kts 98°
2026-05-07 11:51 50.57865 18.28746 24656 ft 435 kts 98°
2026-05-07 11:51 50.57733 18.33429 24135 ft 432 kts 98°
2026-05-07 11:51 50.57589 18.38140 23623 ft 430 kts 98°
2026-05-07 11:51 50.57440 18.42822 23066 ft 427 kts 98°
2026-05-07 11:52 50.57285 18.47482 22541 ft 424 kts 98°
2026-05-07 11:52 50.57120 18.52090 22050 ft 420 kts 98°
2026-05-07 11:52 50.56950 18.56660 21581 ft 417 kts 98°
2026-05-07 11:52 50.56774 18.61193 21130 ft 413 kts 98°
2026-05-07 11:53 50.56598 18.65687 20683 ft 410 kts 98°
2026-05-07 11:53 50.56423 18.70140 20218 ft 407 kts 98°
2026-05-07 11:53 50.56292 18.74567 19762 ft 405 kts 95°
2026-05-07 11:53 50.56273 18.78991 19302 ft 403 kts 93°
2026-05-07 11:54 50.56327 18.83373 18902 ft 398 kts 92°
2026-05-07 11:54 50.56411 18.87661 18775 ft 385 kts 92°
2026-05-07 11:54 50.56493 18.91807 18650 ft 373 kts 92°
2026-05-07 11:54 50.56561 18.95816 18534 ft 361 kts 92°
2026-05-07 11:55 50.56611 18.99704 18403 ft 350 kts 93°
2026-05-07 11:55 50.56622 19.02230 18180 ft 348 kts 94°
2026-05-07 11:55 50.56605 19.06004 17723 ft 343 kts 95°
2026-05-07 11:55 50.56566 19.09742 17163 ft 340 kts 95°
2026-05-07 11:56 50.56520 19.13438 16612 ft 336 kts 95°
2026-05-07 11:56 50.56477 19.17100 16032 ft 334 kts 95°
2026-05-07 11:56 50.56442 19.20736 15431 ft 332 kts 94°
2026-05-07 11:56 50.56415 19.24351 14830 ft 329 kts 94°
2026-05-07 11:57 50.56391 19.27940 14255 ft 327 kts 94°
2026-05-07 11:57 50.56366 19.31506 13647 ft 326 kts 94°
2026-05-07 11:57 50.56343 19.35031 13041 ft 316 kts 94°
2026-05-07 11:57 50.56324 19.38405 12570 ft 302 kts 94°
2026-05-07 11:58 50.56304 19.41649 12113 ft 291 kts 94°
2026-05-07 11:58 50.56284 19.44796 11536 ft 286 kts 94°
2026-05-07 11:58 50.56267 19.47915 10936 ft 283 kts 94°
2026-05-07 11:58 50.56249 19.50995 10725 ft 278 kts 94°
2026-05-07 11:59 50.56233 19.54008 10447 ft 277 kts 94°
2026-05-07 11:59 50.56213 19.57051 10122 ft 277 kts 94°
2026-05-07 11:59 50.56095 19.60064 9681 ft 274 kts 110°
2026-05-07 11:59 50.55230 19.62602 9231 ft 258 kts 140°
2026-05-07 12:00 50.53791 19.64086 8827 ft 243 kts 167°
2026-05-07 12:00 50.52152 19.64410 8455 ft 237 kts 185°
2026-05-07 12:00 50.50499 19.64378 8089 ft 238 kts 185°
2026-05-07 12:00 50.48906 19.63879 7730 ft 232 kts 211°
2026-05-07 12:01 50.47758 19.62197 7423 ft 227 kts 241°
2026-05-07 12:01 50.47357 19.59837 7130 ft 226 kts 268°
2026-05-07 12:01 50.47379 19.57359 6825 ft 231 kts 268°
2026-05-07 12:01 50.47390 19.54791 6498 ft 233 kts 269°
2026-05-07 12:02 50.47404 19.52267 6112 ft 233 kts 269°
2026-05-07 12:02 50.47419 19.49777 5816 ft 226 kts 269°
2026-05-07 12:02 50.47434 19.47371 5539 ft 215 kts 268°
2026-05-07 12:02 50.47448 19.45077 5326 ft 204 kts 268°
2026-05-07 12:03 50.47460 19.42927 5107 ft 191 kts 269°
2026-05-07 12:03 50.47471 19.40895 4857 ft 181 kts 269°
2026-05-07 12:03 50.47480 19.38957 4619 ft 174 kts 269°
2026-05-07 12:03 50.47490 19.37101 4393 ft 167 kts 269°
2026-05-07 12:04 50.47498 19.35240 4181 ft 175 kts 270°
2026-05-07 12:04 50.47508 19.33312 3930 ft 178 kts 270°
2026-05-07 12:04 50.47517 19.31364 3693 ft 179 kts 270°
2026-05-07 12:04 50.47526 19.29393 3476 ft 181 kts 269°
2026-05-07 12:05 50.47534 19.27417 3221 ft 181 kts 270°
2026-05-07 12:05 50.47542 19.25500 2981 ft 170 kts 270°
2026-05-07 12:05 50.47549 19.23725 2766 ft 153 kts 269°
2026-05-07 12:05 50.47556 19.22095 2570 ft 146 kts 270°
2026-05-07 12:06 50.47561 19.20520 2370 ft 144 kts 269°
2026-05-07 12:06 50.47567 19.18961 2181 ft 142 kts 269°
2026-05-07 12:06 50.47572 19.17415 1990 ft 141 kts 269°
2026-05-07 12:06 50.47581 19.15861 1795 ft 141 kts 270°
2026-05-07 12:07 50.47592 19.14298 1597 ft 143 kts 269°
2026-05-07 12:07 50.47580 19.12736 1382 ft 142 kts 269°
2026-05-07 12:07 50.47596 19.11191 1191 ft 141 kts 269°
2026-05-07 12:07 50.47596 19.09641 1014 ft 141 kts 268°
2026-05-07 12:08 50.47597 19.08277 1001 ft 103 kts 270°
2026-05-07 12:08 50.47598 19.07429 1001 ft 48 kts 270°
2026-05-07 12:08 50.47575 19.07126 1002 ft 25 kts 252°
2026-05-07 12:08 50.47530 19.06968 1003 ft 10 kts 241°
2026-05-07 12:09 50.47491 19.06861 1005 ft 12 kts 240°
2026-05-07 12:09 50.47450 19.06748 999 ft 10 kts 240°
2026-05-07 12:09 50.47412 19.06656 1000 ft 10 kts 227°
2026-05-07 12:09 50.47341 19.06625 998 ft 12 kts 180°
2026-05-07 12:10 50.47266 19.06634 1003 ft 10 kts 159°
2026-05-07 12:10 50.47236 19.06708 1000 ft 7 kts 99°
2026-05-07 12:10 50.47236 19.06796 998 ft 10 kts 90°
2026-05-07 12:10 50.47236 19.06885 998 ft 5 kts 90°
2026-05-07 12:11 50.47234 19.06924 998 ft 3 kts 101°
2026-05-07 12:11 50.47211 19.06951 998 ft 6 kts 166°
2026-05-07 12:11 50.47192 19.06952 999 ft 2 kts 179°
2026-05-07 12:11 50.47178 19.06952 998 ft 2 kts 179°
2026-05-07 12:12 50.47169 19.06952 1001 ft 1 kts 180°
2026-05-07 12:12 50.47167 19.06952 1001 ft 0 kts 180°